RH
48 49 56 76 70 63 40 26 21 22 21 20 28 31 38 42 46 47 42 32 24 24 26 32 38 37 38 43 46 43 40 40 40 42 40 40 37 35 34 30 30 33 35 39 39 40 36 31 31 32 32 31 32 33
49 51 56 73 72 66 52 31 23 22 21 19 24 28 30 35 40 46 48 45 39 33 28 29 33 36 39 38 41 45 45 49 49 49 47 42 40 38 36 35 30 33 30 34 33 31 30 30 28 28 29 30 32 33
54 47 55 71 75 69 62 39 28 22 24 21 21 25 28 30 34 41 51 51 47 40 37 30 29 29 33 38 41 42 45 44 48 47 48 49 46 41 40 38 33 32 33 33 30 25 27 28 29 30 31 32 34 35
64 54 53 71 76 70 67 48 33 26 26 24 22 25 26 29 33 37 43 52 48 47 47 43 36 32 30 32 36 39 42 42 43 44 49 50 48 40 40 37 37 33 34 34 33 29 29 29 29 31 32 33 34 36
71 61 60 74 77 71 71 57 38 31 29 26 25 28 27 29 30 35 40 43 42 44 46 43 41 37 35 30 31 34 39 42 44 45 47 46 45 45 43 42 39 34 32 36 33 29 29 31 32 34 33 34 35 37
75 66 66 76 79 74 74 65 44 36 33 30 26 29 30 31 31 35 39 41 35 37 39 40 41 42 43 43 43 38 34 38 44 47 48 48 44 46 50 49 32 29 27 28 28 29 32 33 34 34 35 36 37 37
76 71 74 80 82 77 76 70 50 40 37 33 29 28 34 32 30 36 35 31 29 29 32 37 41 42 41 42 45 48 48 45 41 43 46 44 44 51 51 38 29 29 30 30 31 32 33 35 36 36 38 39 38 37
79 83 80 83 85 81 78 75 56 46 41 39 38 35 39 36 35 31 34 32 31 30 30 38 40 41 42 46 49 50 53 55 55 49 44 42 45 46 46 30 25 27 29 31 33 33 34 35 37 38 37 37 37 35
83 88 87 85 87 85 83 78 61 53 46 45 44 44 43 41 38 34 31 33 35 34 34 35 39 47 46 47 51 56 60 65 63 61 57 51 45 43 28 27 28 28 27 29 30 33 34 34 35 36 36 39 39 34
87 88 91 87 90 88 89 82 67 59 54 51 48 46 44 42 39 35 32 32 35 37 37 37 37 45 46 52 54 58 63 70 73 67 65 60 46 29 26 27 27 29 30 28 29 30 30 31 32 34 39 41 36 30
86 90 92 91 92 91 93 88 72 66 59 55 51 47 46 43 42 41 39 36 39 38 37 37 41 43 45 52 53 56 65 69 72 69 72 66 57 35 27 23 22 27 32 32 31 31 31 31 33 37 39 37 33 25
84 91 92 95 97 94 97 92 79 70 64 60 57 52 50 47 47 46 45 41 39 38 37 37 36 36 40 42 49 53 59 64 70 70 73 69 57 49 32 24 25 29 32 34 34 33 33 32 34 36 34 32 26 21
87 91 92 96 99 99 98 94 83 74 71 67 61 58 54 53 54 52 48 44 42 35 33 32 36 36 38 42 48 54 57 60 61 71 69 58 51 53 46 35 27 28 31 32 32 32 32 35 36 33 27 23 24 25
89 94 94 99 99 99 98 94 87 81 78 69 65 63 59 58 52 50 45 41 35 33 31 33 36 40 42 45 49 54 51 52 58 63 62 52 49 46 52 45 37 33 30 31 32 32 35 36 35 26 21 22 27 27
92 97 98 98 98 98 98 94 90 87 82 72 68 66 62 54 53 48 47 44 38 35 38 40 40 43 47 48 49 50 53 54 49 50 47 46 48 53 59 48 45 39 34 33 31 30 31 35 31 26 26 33 30 28
96 99 97 98 99 98 98 97 96 92 87 76 71 70 67 65 61 55 49 45 41 40 41 42 45 50 51 49 52 50 50 45 39 40 34 41 49 58 55 57 51 47 45 42 38 37 37 32 30 33 38 36 30 29
99 97 98 100 99 98 98 98 97 97 94 81 69 71 69 67 62 57 50 47 45 45 47 47 49 44 48 51 49 43 42 36 34 33 36 41 48 60 61 52 49 49 47 44 42 41 39 37 39 45 41 37 32 29
98 97 99 100 98 98 97 97 97 95 88 82 82 76 73 71 63 58 54 50 51 48 48 48 43 45 45 42 41 34 34 33 32 28 30 35 43 53 62 61 55 50 49 47 46 41 35 44 48 49 42 39 32 29
96 98 99 99 98 98 97 97 96 90 83 82 82 81 79 77 71 62 58 56 54 52 54 52 46 42 35 32 32 31 34 36 34 34 35 38 44 53 58 62 57 55 54 53 45 37 43 53 56 49 43 40 33 31
98 98 99 99 98 97 97 96 95 92 87 84 83 83 80 76 72 67 63 59 58 55 58 56 43 31 29 28 31 31 35 36 36 34 34 41 48 55 60 61 58 62 59 48 42 42 54 57 57 49 43 38 34 32
98 97 99 98 98 98 96 95 93 88 86 87 87 87 87 83 79 75 72 69 69 61 60 50 39 32 31 31 33 33 35 39 39 40 39 39 46 52 59 62 58 57 54 49 48 50 64 59 53 49 44 41 37 32
96 99 98 97 98 97 97 95 92 89 89 87 89 88 88 86 84 81 77 78 72 62 60 53 41 35 34 33 33 33 35 38 39 40 41 40 40 45 54 58 54 57 54 49 47 55 65 55 56 49 45 42 36 33
98 98 98 98 97 95 96 94 91 88 89 89 89 90 88 86 82 81 81 75 69 64 58 52 41 37 35 35 35 32 33 36 37 38 40 40 43 44 50 60 54 55 57 52 46 61 64 56 56 54 48 44 37 35
98 98 97 97 96 95 93 92 91 90 88 88 89 89 88 87 85 84 76 68 69 68 65 51 43 41 37 36 32 32 32 35 36 37 40 43 48 52 54 62 57 49 51 51 51 68 62 57 57 52 47 44 37 36
98 97 97 95 92 90 90 88 87 88 84 83 84 87 88 88 86 81 70 63 65 67 68 57 48 43 39 35 33 32 32 33 34 37 43 48 51 57 58 65 66 55 53 50 63 67 63 58 55 49 46 42 38 37
97 95 92 86 83 82 81 83 82 82 84 85 84 87 87 88 88 78 68 66 68 68 61 55 49 45 41 38 37 36 33 35 36 38 45 52 59 65 69 76 65 57 56 64 72 66 57 56 54 47 46 41 39 35
96 89 85 83 81 78 81 81 82 83 86 84 85 88 91 92 85 72 69 70 66 58 53 49 46 43 40 39 38 37 36 37 39 46 54 63 73 80 80 74 66 60 63 73 71 59 59 57 50 46 44 43 40 32
89 81 80 82 83 81 84 86 87 85 80 80 83 88 87 82 76 71 73 71 62 56 51 48 45 43 43 42 40 38 39 41 46 53 64 72 73 73 68 66 66 65 82 73 60 62 60 52 47 46 45 43 38 32
86 86 84 85 86 87 86 83 80 77 77 80 80 82 80 75 76 80 78 70 62 57 49 47 47 48 47 44 42 41 41 45 49 56 62 69 75 72 72 64 78 82 70 71 71 64 56 53 48 47 45 43 37 34
82 82 85 88 87 87 83 79 79 80 79 79 77 78 78 78 83 82 76 67 57 49 48 50 51 48 47 49 48 46 47 50 55 63 69 79 83 77 69 68 73 71 82 83 70 60 54 52 48 47 46 42 36 36
86 87 89 87 86 84 81 83 84 83 82 81 81 81 82 82 77 72 64 56 53 52 51 47 46 48 51 52 51 51 52 57 65 75 79 84 79 72 71 73 71 80 82 69 61 56 54 50 50 50 46 40 37 38
89 87 82 84 87 88 89 87 89 88 87 87 87 87 87 81 69 61 57 55 54 48 44 46 48 48 51 53 54 54 57 68 75 81 83 80 76 70 69 80 80 79 70 61 57 56 53 51 52 49 43 39 40 40
90 85 84 89 93 93 94 94 95 96 95 94 92 85 74 66 62 56 53 46 44 44 45 48 50 51 52 55 59 61 65 73 80 80 78 74 66 64 75 89 86 73 64 61 59 56 53 52 51 46 41 42 43 42